{"data":{"norad_id":44801,"epoch":"2026-05-25T03:47:46.959360Z","epoch_age_seconds":57793,"freshness":"FRESH","line1":"1 44801U 19080B   26145.15818240  .00000072  00000+0  00000+0 0  9999","line2":"2 44801   0.0415  11.1387 0001962  59.8644 239.7261  1.00269922  6551","mean_motion":1.00269922,"eccentricity":0.0001962,"inclination_deg":0.0415,"raan_deg":11.1387,"arg_perigee_deg":59.8644,"mean_anomaly_deg":239.7261,"bstar":0,"rev_number":655,"period_min":1436.1235864929,"perigee_km":35778.844412925,"apogee_km":35795.390058687,"semimajor_km":42165.254235806,"source":"CELESTRAK","updated_at":"2026-05-25T13:38:14.090615Z"}}